ROMMA est une association bénévole à but non lucratif. Votre soutien est indispensable : ADHERER à ROMMA ou FAIRE un DON

Le Versoud - (38, Isère)

Vallée du Grésivaudan (220 m)   Longitude: 05° 51' 44" E   Latitude: 45° 13' 06" N Station partenaire n°6
 

Détail journalier du     <<     >>

Température Humidité Pression Vent Dir Rafale Dir. rafale Ensol.
Heure (°C) (%) (hPa) (km/h) (km/h) (min)
01:00 14.894101000---0
02:00 14.795101000---0
03:00 14.695100900---0
04:00 14.295100800---0
05:00 13.895100802SSO0
06:00 13.495100800---0
07:00 13.495100800---0
08:00 13.595100800---0
09:00 13.895100902SSO0
10:00 14.594101000---0
11:00 14.892101000---0
12:00 15.487101108NO0
13:00 15.290101106N0
14:00 16.586101106NNE5
15:00 16.985101202NNE0
16:00 16.386101206NNE0
17:00 16.384101200---0
18:00 15.292101300---0
19:00 14.793101305N5
20:00 14.293101300---0
21:00 13.994101402N0
22:00 13.794101606NNE0
23:00 13.493101700---0
minuit 12.192101700---0

Graphique du 02-10-2019

 

Serveur OMMA